EA7NW Cordoba ES current weather conditions

sailwx.info

Wind from 160

Air temperature 23.3° C
Dewpoint 13.2° C

Last reported at 2014-Oct-20 08:30 UTC.
Time now 2014-Oct-20 09:55 UTC

Location: N 37°53' W 004°48'.
View on Google Maps.

See reports from other nearby stations

  
Tides and Currents Weather Stations Pressure Air Temp Water Temp Dewpoint Dewpoint Depression Visibility Wind Speed Wind Dir Waves Ship Positions
date/time (UTC)wind fromknots sea level pressurealtimeterstation pressurevisibilityair tempwater tempwave heightnotes
2014-Oct-20 08:30 160 23.3
2014-Oct-20 08:15 160 22.8
2014-Oct-20 08:00 160 22.8
2014-Oct-20 07:15 160 21.7
2014-Oct-20 07:00 160 21.7
2014-Oct-20 06:30 160 21.7
2014-Oct-20 06:15 160 21.7
2014-Oct-20 02:15 178 1 gusting 4 21.7
2014-Oct-20 01:30 136 0 gusting 4 21.7
2014-Oct-20 01:15 107 0 gusting 2 22.2
2014-Oct-20 01:00 116 0 gusting 4 22.2
2014-Oct-20 00:30 070 2 gusting 7 22.8
2014-Oct-19 23:00 115 1 gusting 6 23.9
2014-Oct-19 22:30 074 2 gusting 6 24.4
2014-Oct-19 22:15 081 2 gusting 6 24.4
2014-Oct-19 22:01 115 2 gusting 5 24.4
2014-Oct-19 21:45 050 1 gusting 5 24.4
2014-Oct-19 21:30 117 1 gusting 6 24.4
2014-Oct-19 20:30 115 4 gusting 6 25.0
2014-Oct-19 20:01 205 0 gusting 2 26.1
2014-Oct-19 19:46 025 1 gusting 5 26.7
2014-Oct-19 19:31 025 2 gusting 5 26.1
2014-Oct-19 19:16 295 0 gusting 2 26.1
2014-Oct-19 19:01 319 0 gusting 10 26.1
2014-Oct-19 18:00 034 1 gusting 4 28.3
2014-Oct-19 17:45 025 0 gusting 1 29.4
2014-Oct-19 17:30 293 30.0
2014-Oct-19 16:45 347 0 gusting 2 31.7
2014-Oct-19 16:30 017 1 gusting 4 32.2
2014-Oct-19 16:15 357 0 gusting 2 32.8
2014-Oct-19 15:45 300 0 gusting 2 32.2
2014-Oct-19 15:30 330 0 gusting 4 32.2
2014-Oct-19 15:15 021 1 gusting 4 32.8
2014-Oct-19 15:00 160 1 gusting 4 32.8
2014-Oct-19 14:30 140 3 gusting 6 32.2
2014-Oct-19 14:15 150 4 gusting 8 32.2
2014-Oct-19 14:00 106 2 gusting 11 32.2
2014-Oct-19 13:45 115 2 gusting 11 32.2
2014-Oct-19 13:00 156 1 gusting 7 30.6
2014-Oct-19 12:45 332 1 gusting 5 30.6
2014-Oct-19 12:15 130 1 gusting 6 28.3
2014-Oct-19 12:00 145 4 gusting 10 27.8
2014-Oct-19 11:46 115 6 gusting 8 27.8
2014-Oct-19 11:15 074 2 gusting 11 26.1
2014-Oct-19 11:00 115 5 gusting 13 26.1
2014-Oct-19 10:45 122 3 gusting 8 25.6
2014-Oct-19 10:30 106 2 gusting 8 23.9
2014-Oct-19 10:15 095 3 gusting 8 23.3
2014-Oct-19 10:00 113 2 gusting 10 22.8
2014-Oct-19 09:45 123 3 gusting 8 22.2
2014-Oct-19 09:15 114 4 gusting 8 20.6
2014-Oct-19 09:00 144 2 gusting 11 19.4
2014-Oct-19 08:45 177 1 gusting 8 19.4
2014-Oct-19 07:45 115 2 gusting 6 18.3
2014-Oct-19 07:30 115 4 gusting 6 18.3
2014-Oct-19 07:00 070 1 gusting 5 18.3
2014-Oct-19 06:45 250 2 gusting 6 17.8
2014-Oct-19 06:15 117 1 gusting 7 18.3
2014-Oct-19 06:00 115 2 gusting 6 18.3
2014-Oct-19 05:00 115 4 gusting 6 18.9
2014-Oct-19 04:45 125 0 gusting 5 18.9
2014-Oct-19 04:30 088 0 gusting 4 18.9
2014-Oct-19 04:15 079 0 gusting 5 18.9
2014-Oct-19 04:00 064 0 gusting 5 18.9
2014-Oct-19 03:45 008 1 gusting 5 19.4
2014-Oct-19 03:30 114 0 gusting 5 19.4
2014-Oct-19 03:15 070 1 gusting 6 19.4
2014-Oct-19 02:30 115 2 gusting 6 19.4
2014-Oct-19 02:15 145 2 gusting 6 20.0
2014-Oct-19 02:00 115 2 gusting 6 20.6
2014-Oct-19 01:45 104 2 gusting 6 20.6
2014-Oct-19 01:30 067 1 gusting 5 20.6
2014-Oct-19 01:00 070 0 gusting 4 20.6
2014-Oct-19 00:30 295 20.6
2014-Oct-18 23:45 115 1 gusting 5 21.7
2014-Oct-18 23:30 144 1 gusting 4 21.7
2014-Oct-18 23:00 121 0 gusting 2 22.2
2014-Oct-18 22:45 115 22.2
2014-Oct-18 22:30 160 22.2
2014-Oct-18 22:15 126 0 gusting 2 22.8
2014-Oct-18 22:00 205 22.8
2014-Oct-18 21:45 205 22.8
2014-Oct-18 21:30 205 23.3
2014-Oct-18 21:00 277 0 gusting 2 23.9
2014-Oct-18 20:45 250 24.4
2014-Oct-18 20:30 250 23.9
2014-Oct-18 20:15 205 24.4
2014-Oct-18 20:00 253 25.0
2014-Oct-18 19:45 271 25.6
2014-Oct-18 19:30 205 25.6
2014-Oct-18 19:15 205 0 gusting 1 26.1
2014-Oct-18 19:00 205 26.7
2014-Oct-18 18:45 221 26.7
2014-Oct-18 18:15 032 0 gusting 2 27.2
2014-Oct-18 18:00 149 0 gusting 4 27.8
2014-Oct-18 17:45 340 0 gusting 4 28.9
2014-Oct-18 17:15 115 1 gusting 4 30.6
2014-Oct-18 17:00 111 0 gusting 4 30.6
2014-Oct-18 16:45 070 0 gusting 2 31.1
2014-Oct-18 16:30 205 0 gusting 5 31.1
2014-Oct-18 16:15 186 0 gusting 4 31.7
2014-Oct-18 16:00 059 1 gusting 4 31.7
2014-Oct-18 15:45 128 1 gusting 5 31.1
2014-Oct-18 15:30 115 0 gusting 5 31.1
2014-Oct-18 15:15 160 0 gusting 5 31.7
2014-Oct-18 15:00 129 0 gusting 5 31.1
2014-Oct-18 14:45 134 1 gusting 6 31.1
2014-Oct-18 14:30 139 0 gusting 4 31.7
2014-Oct-18 14:15 070 0 gusting 5 31.1
2014-Oct-18 13:45 022 0 gusting 2 30.6
2014-Oct-18 13:30 226 29.4
2014-Oct-18 13:00 238 0 gusting 6 28.3
2014-Oct-18 12:01 140 3 gusting 6 27.2
2014-Oct-18 11:45 115 3 gusting 7 26.7
2014-Oct-18 11:30 160 5 gusting 8 26.1
2014-Oct-18 11:00 136 2 gusting 8 25.0
2014-Oct-18 10:30 120 4 gusting 8 24.4
2014-Oct-18 10:15 148 4 gusting 8 23.9
2014-Oct-18 10:00 115 5 gusting 10 23.9
2014-Oct-18 09:46 115 4 gusting 11 22.8
2014-Oct-18 09:30 115 6 gusting 10 22.2
2014-Oct-18 09:15 070 3 gusting 7 21.7